Wind_Speed
23 20 17 15 16 17 18 21 24 31 34 32 31 31 33 35 37 38 39 39 38 32 28 26 23 21 21 16 8 3 12 12 14 13 14 14 12 13 15 18 20 23 25 27 28
26 24 21 17 18 18 18 21 25 31 35 34 33 32 32 34 36 37 35 35 34 31 27 25 24 22 20 17 12 12 12 12 13 13 14 15 14 15 16 18 21 24 26 27 28
24 26 24 20 19 20 19 22 25 31 37 36 34 33 32 33 36 37 35 32 30 28 24 23 24 22 17 16 13 12 14 12 12 14 15 16 15 17 17 19 22 25 27 27 29
26 26 27 25 21 22 21 22 25 30 37 37 36 35 35 34 37 36 35 32 28 25 21 22 21 17 14 13 14 15 12 13 13 15 17 17 18 20 20 20 23 25 27 28 30
23 27 27 27 25 23 23 22 24 29 36 39 37 37 37 36 36 36 34 32 27 24 21 20 20 17 14 15 14 14 13 14 15 18 18 18 18 20 22 22 23 25 27 28 30
17 24 30 29 29 26 25 24 24 27 34 39 39 39 39 39 37 36 35 33 28 24 22 21 20 19 16 16 16 16 15 16 18 19 20 19 19 21 22 24 26 26 27 29 31
18 17 25 33 31 30 26 27 25 27 31 38 39 40 39 41 39 37 36 34 30 26 23 21 19 19 19 19 19 19 18 20 21 21 21 21 20 22 24 25 27 29 29 30 31
16 18 20 31 34 33 30 28 27 27 30 35 39 40 41 41 40 39 36 36 32 28 26 24 22 21 22 22 21 21 21 23 23 23 22 22 22 22 24 28 27 29 31 32 33
15 17 17 26 36 36 33 30 30 28 29 32 38 41 43 41 41 39 38 37 35 31 29 28 26 26 25 24 24 23 24 25 25 25 23 23 22 23 24 26 29 30 30 32 34
14 16 17 17 33 40 37 34 31 30 30 30 34 39 41 41 40 41 39 39 37 34 32 32 31 30 28 24 27 27 26 26 27 27 26 25 22 22 24 26 29 29 30 33 34
16 17 17 16 27 41 40 38 33 32 31 31 31 35 38 40 41 41 40 41 40 37 35 35 34 32 30 32 31 28 27 28 30 29 27 26 24 21 24 27 29 29 31 33 34
17 18 19 19 23 42 44 41 36 33 33 31 31 32 35 38 39 41 41 42 42 40 38 37 36 34 35 31 31 29 29 30 31 30 29 27 24 23 24 27 30 30 31 33 34
18 20 20 21 23 42 47 43 38 34 32 32 31 31 34 36 38 40 41 42 42 42 39 38 37 36 35 34 32 31 30 30 33 31 31 29 24 22 26 29 30 30 31 32 34
18 20 21 21 21 41 47 44 41 35 33 32 31 32 32 34 37 39 40 41 40 40 39 39 36 34 34 34 33 32 31 32 32 32 34 27 29 22 27 29 30 30 31 33 34
18 19 20 20 18 38 44 43 40 37 34 34 33 32 32 34 34 37 37 38 39 39 38 38 34 32 33 33 33 33 31 32 33 33 34 30 31 26 29 31 31 31 32 34 35
17 17 18 17 14 32 41 40 39 38 36 31 32 31 32 31 32 34 35 36 37 37 35 38 33 33 33 31 32 32 32 33 35 35 35 29 31 30 30 31 32 33 34 35 37
17 16 15 13 11 25 36 37 38 40 36 34 28 30 31 33 32 33 34 34 35 34 34 34 33 32 32 31 31 31 32 34 36 35 34 33 32 29 31 33 34 35 36 38 39
19 17 14 9 8 19 32 36 39 39 38 35 32 28 25 29 31 32 33 34 34 33 34 33 34 32 31 31 31 32 32 32 34 38 39 35 35 33 32 34 36 38 38 39 40
21 19 16 13 9 10 25 35 40 38 38 37 37 33 29 28 25 27 31 32 33 33 33 34 35 34 33 32 32 34 33 32 35 38 39 39 36 35 33 36 37 38 39 40 42
24 22 18 17 13 11 14 21 32 36 36 37 38 38 37 35 31 30 28 30 31 32 33 36 36 35 35 35 35 35 34 34 35 37 40 40 38 35 34 37 38 40 40 41 44
26 24 20 19 19 16 10 9 12 16 27 36 39 39 39 38 37 36 35 33 32 30 33 35 35 38 37 36 36 36 37 36 36 38 38 39 35 38 37 39 40 40 41 43 45
30 26 23 21 21 19 15 10 9 10 15 21 30 40 42 40 39 40 40 39 36 36 34 34 38 40 39 39 39 39 39 37 38 38 37 37 40 37 39 39 39 41 43 44 47
33 29 26 24 21 20 20 18 13 11 11 12 17 26 33 40 43 42 42 41 41 39 38 37 40 39 41 43 42 40 38 38 38 39 42 38 38 35 39 39 40 42 44 46 48
37 33 29 25 22 21 22 22 18 15 16 14 14 16 20 28 36 43 47 46 45 42 41 42 41 41 42 38 44 41 40 39 40 42 38 38 36 36 39 39 41 43 45 47 49
39 35 32 28 24 23 23 22 19 18 19 19 17 17 19 21 26 35 42 47 47 46 45 45 46 45 43 41 41 41 40 40 40 35 38 36 35 37 38 39 42 44 46 49 49
40 36 34 31 27 26 23 23 22 22 20 21 20 20 19 20 23 26 34 43 47 49 49 49 48 46 47 44 42 40 40 39 37 37 37 35 36 37 38 40 42 44 47 47 48
41 38 34 33 30 28 26 25 25 24 21 23 23 22 21 21 21 25 29 36 41 46 47 46 45 40 42 41 44 48 42 36 34 32 30 32 35 38 40 39 41 45 47 50 51
Wind_Direction
232 236 238 231 225 217 210 211 206 194 190 187 191 194 193 192 194 195 196 199 203 207 216 219 225 232 240 250 238 238 296 297 310 320 323 318 325 338 356 354 348 346 346 344 345
227 229 235 234 226 222 212 214 210 199 193 191 191 195 197 198 198 197 198 199 202 208 218 226 228 236 244 254 266 287 295 300 313 319 315 313 322 332 342 347 344 342 340 341 342
228 229 229 233 229 225 214 213 212 205 196 195 194 195 200 202 203 202 201 200 201 209 217 229 228 233 248 267 275 286 290 303 313 310 308 311 322 328 333 341 340 338 335 337 339
231 227 229 227 231 227 218 213 213 209 200 196 197 197 201 205 208 207 205 204 205 208 215 226 227 235 249 262 270 278 287 299 304 304 305 313 325 324 328 334 334 332 330 333 337
234 231 228 227 228 228 223 214 213 212 205 200 200 199 202 206 210 210 210 209 209 211 212 220 228 235 244 263 268 275 284 295 301 300 306 312 318 318 321 324 326 326 327 333 333
238 237 231 226 227 227 225 218 214 214 210 204 202 202 203 207 212 211 213 213 213 215 215 219 226 235 244 261 267 275 280 290 294 299 303 307 311 311 314 318 321 322 326 329 332
248 245 236 230 224 226 224 223 213 214 213 208 205 205 206 209 212 213 215 216 215 216 220 222 224 230 246 255 260 268 273 280 288 295 300 304 305 309 311 312 317 320 324 327 329
254 244 242 230 226 224 223 223 217 213 215 212 209 208 208 212 213 216 217 219 217 218 221 226 227 235 246 250 253 260 267 274 282 290 295 298 302 307 309 310 314 317 320 322 325
259 247 246 233 226 223 222 221 221 215 214 214 211 211 212 212 213 217 218 221 220 221 224 228 233 239 243 246 250 255 262 270 278 282 287 291 298 304 304 306 311 314 319 321 324
266 259 255 250 227 224 220 221 221 219 213 214 213 213 213 214 215 216 219 223 223 223 225 231 237 240 242 244 249 251 261 268 273 279 282 288 295 301 302 305 307 311 317 320 323
261 269 264 270 238 222 221 218 219 222 214 216 214 216 217 216 216 217 219 222 225 225 227 233 238 241 239 240 245 251 258 265 270 275 281 287 294 300 301 303 304 311 317 320 322
258 275 273 273 253 220 219 217 217 220 221 214 215 217 219 218 219 220 219 222 226 229 230 234 238 239 243 244 246 251 257 264 271 275 279 283 293 300 300 300 303 311 316 319 321
259 274 276 281 264 218 216 216 215 218 222 219 215 217 218 220 221 221 222 224 227 231 233 235 237 241 244 245 248 252 259 265 270 273 277 283 290 297 298 298 304 309 316 318 320
260 273 282 290 272 216 214 214 214 216 221 223 219 221 217 219 223 223 224 226 230 234 236 237 238 242 246 248 251 257 263 266 270 276 279 284 291 297 296 298 303 311 314 317 320
256 270 280 292 271 216 211 213 214 215 220 222 222 222 222 220 221 224 226 228 232 235 237 241 241 242 244 247 252 258 264 270 275 277 280 287 289 295 294 297 305 309 313 315 320
249 261 275 288 269 216 212 213 214 216 218 222 226 225 227 226 226 227 228 230 233 237 239 246 246 246 250 253 257 262 267 269 270 274 278 284 288 292 295 301 304 308 311 314 319
237 247 263 275 265 217 213 217 219 220 218 222 224 227 228 229 228 230 232 233 236 239 243 247 250 251 252 254 258 263 267 271 274 276 278 285 285 290 294 299 302 305 309 313 318
228 234 242 252 258 222 215 219 225 226 226 226 228 229 232 233 234 236 238 237 238 241 247 250 251 251 251 255 258 260 264 268 277 278 282 281 288 292 296 297 300 304 307 311 316
223 225 229 228 230 225 220 222 225 227 230 232 233 234 235 238 238 239 241 244 246 247 250 251 254 257 257 257 258 262 264 268 271 274 280 283 289 289 294 296 299 302 306 311 316
221 219 221 222 218 221 226 227 231 232 232 234 235 235 238 239 241 242 243 243 245 248 253 257 259 259 261 261 261 264 267 268 270 275 279 283 285 289 294 295 297 302 306 311 316
220 217 211 217 218 220 222 225 227 229 233 236 238 239 238 238 240 243 247 248 247 247 250 254 257 259 260 262 266 264 265 266 269 273 279 283 288 292 293 293 298 301 305 311 317
218 217 210 215 221 219 215 220 225 219 225 229 236 240 241 240 240 240 242 245 247 248 248 252 255 258 261 262 262 264 266 270 273 279 276 279 282 291 290 293 296 301 307 312 316
219 218 212 217 220 225 223 225 233 238 240 239 238 238 240 242 244 245 245 244 246 247 248 250 254 257 261 262 265 268 269 269 271 272 276 281 286 284 287 292 296 300 305 310 315
221 220 221 220 222 226 228 231 233 244 257 264 263 259 252 246 244 244 244 247 247 249 252 252 252 255 258 257 263 263 265 268 270 272 278 279 279 281 286 290 294 299 304 309 312
222 223 222 223 222 225 229 233 239 246 251 261 272 278 278 271 259 248 245 246 247 248 249 253 257 257 258 259 259 261 262 263 266 271 273 276 277 279 284 288 292 297 302 306 312
222 224 226 226 227 227 231 235 241 246 253 263 270 280 288 289 279 264 252 247 245 245 249 251 255 258 258 260 260 260 260 261 264 266 270 271 270 276 280 285 291 296 301 307 315
220 222 225 228 230 230 232 239 245 250 257 263 270 277 283 287 289 284 275 257 252 247 247 251 256 260 262 264 264 265 266 264 265 266 268 267 270 275 280 286 291 297 303 310 313
Height
5844 5846 5848 5849 5850 5851 5853 5855 5857 5859 5862 5865 5869 5873 5876 5880 5883 5888 5892 5896 5899 5902 5904 5907 5910 5913 5914 5917 5917 5917 5917 5916 5914 5912 5909 5905 5902 5901 5897 5895 5893 5891 5888 5885 5880
5840 5842 5845 5846 5848 5849 5851 5853 5855 5858 5860 5864 5867 5871 5875 5879 5883 5887 5891 5894 5898 5901 5903 5906 5909 5911 5914 5916 5917 5917 5917 5915 5913 5910 5907 5904 5901 5899 5897 5893 5891 5889 5885 5882 5877
5835 5838 5841 5844 5846 5847 5848 5851 5853 5856 5859 5862 5865 5869 5873 5877 5882 5885 5889 5893 5896 5899 5902 5904 5907 5911 5913 5914 5915 5915 5914 5912 5911 5908 5905 5902 5899 5898 5895 5891 5888 5886 5883 5879 5875
5831 5833 5837 5840 5843 5845 5846 5848 5850 5854 5856 5859 5863 5866 5871 5875 5880 5883 5887 5891 5894 5897 5900 5902 5905 5909 5911 5912 5913 5912 5911 5909 5908 5906 5903 5900 5897 5896 5892 5889 5886 5883 5881 5876 5871
5826 5829 5832 5835 5838 5841 5844 5845 5848 5851 5854 5857 5860 5864 5868 5872 5876 5881 5885 5889 5892 5895 5898 5901 5902 5905 5907 5909 5910 5909 5909 5907 5905 5904 5901 5898 5895 5893 5890 5887 5884 5881 5877 5872 5867
5822 5824 5827 5830 5834 5838 5840 5842 5845 5848 5851 5854 5858 5861 5865 5869 5873 5878 5882 5886 5890 5893 5895 5898 5900 5902 5904 5906 5906 5906 5905 5903 5902 5900 5898 5895 5893 5890 5887 5883 5880 5877 5872 5868 5864
5818 5820 5821 5825 5829 5833 5836 5839 5842 5845 5847 5851 5854 5858 5862 5865 5870 5874 5879 5883 5887 5890 5892 5895 5897 5900 5902 5902 5902 5902 5902 5900 5898 5897 5895 5892 5890 5887 5884 5879 5876 5872 5868 5865 5860
5813 5815 5816 5819 5823 5828 5832 5836 5838 5841 5844 5847 5851 5855 5858 5861 5866 5871 5875 5879 5883 5887 5889 5891 5893 5895 5897 5898 5898 5898 5898 5897 5895 5894 5892 5890 5887 5884 5881 5877 5871 5868 5864 5860 5856
5808 5810 5811 5813 5817 5822 5827 5831 5835 5837 5841 5844 5848 5851 5854 5858 5862 5867 5871 5874 5879 5883 5886 5888 5890 5892 5893 5894 5894 5894 5893 5893 5891 5890 5889 5887 5883 5881 5877 5873 5869 5864 5860 5856 5851
5804 5805 5806 5808 5811 5816 5821 5826 5830 5833 5837 5841 5844 5849 5852 5855 5859 5863 5867 5870 5875 5879 5882 5884 5886 5888 5889 5891 5890 5889 5889 5888 5887 5886 5884 5882 5880 5877 5873 5869 5865 5861 5856 5852 5846
5799 5800 5801 5803 5804 5809 5815 5820 5826 5831 5832 5837 5840 5843 5847 5851 5855 5859 5863 5866 5870 5875 5878 5880 5882 5884 5885 5883 5883 5884 5885 5883 5882 5881 5880 5878 5876 5874 5869 5865 5861 5857 5852 5847 5842
5795 5795 5795 5796 5796 5800 5807 5813 5819 5825 5829 5832 5836 5839 5843 5847 5851 5855 5859 5862 5865 5870 5873 5877 5878 5879 5878 5880 5879 5880 5879 5878 5877 5876 5875 5873 5872 5869 5865 5861 5857 5852 5847 5842 5836
5790 5790 5790 5789 5788 5792 5799 5807 5813 5819 5824 5828 5832 5835 5839 5844 5847 5851 5854 5857 5860 5864 5868 5871 5872 5873 5874 5874 5874 5874 5874 5873 5873 5871 5869 5867 5868 5863 5860 5856 5852 5848 5842 5837 5832
5785 5785 5784 5783 5782 5784 5792 5801 5808 5814 5819 5825 5827 5831 5835 5838 5842 5846 5849 5853 5856 5859 5862 5863 5866 5868 5869 5869 5869 5869 5869 5868 5868 5866 5864 5863 5860 5861 5855 5851 5847 5842 5837 5832 5826
5781 5781 5779 5778 5775 5779 5787 5795 5803 5809 5815 5820 5823 5827 5831 5834 5838 5840 5844 5847 5850 5852 5856 5857 5860 5861 5862 5863 5863 5863 5863 5863 5861 5860 5858 5858 5853 5855 5849 5845 5841 5837 5832 5826 5820
5776 5776 5775 5775 5771 5775 5783 5790 5798 5804 5808 5814 5818 5822 5826 5830 5833 5835 5838 5842 5844 5847 5849 5850 5853 5855 5857 5858 5858 5858 5859 5857 5855 5854 5853 5853 5849 5847 5842 5839 5834 5830 5825 5820 5814
5771 5772 5772 5772 5771 5773 5780 5787 5794 5796 5804 5809 5813 5817 5821 5824 5827 5830 5833 5837 5840 5842 5844 5846 5847 5849 5851 5852 5853 5853 5853 5851 5850 5848 5847 5845 5843 5842 5836 5832 5828 5824 5819 5813 5807
5766 5767 5769 5770 5770 5771 5777 5784 5787 5793 5799 5804 5809 5812 5816 5819 5822 5825 5828 5831 5834 5837 5838 5840 5842 5843 5845 5846 5846 5846 5846 5846 5843 5841 5838 5838 5836 5834 5830 5826 5821 5817 5811 5806 5801
5762 5763 5767 5768 5770 5770 5773 5777 5781 5787 5794 5798 5802 5807 5810 5814 5818 5820 5823 5826 5829 5831 5833 5833 5834 5836 5837 5839 5840 5839 5839 5840 5836 5834 5831 5830 5829 5826 5823 5819 5814 5810 5805 5800 5794
5756 5759 5763 5765 5768 5769 5771 5773 5777 5783 5788 5792 5795 5800 5804 5808 5812 5815 5817 5820 5821 5824 5825 5826 5827 5829 5830 5831 5832 5832 5833 5832 5830 5826 5824 5822 5821 5819 5816 5811 5807 5803 5798 5793 5787
5751 5755 5759 5761 5764 5766 5770 5772 5774 5777 5781 5786 5788 5792 5796 5800 5805 5808 5811 5813 5814 5816 5817 5819 5820 5820 5822 5824 5825 5825 5824 5824 5822 5821 5818 5817 5815 5811 5808 5804 5800 5796 5791 5786 5780
5744 5749 5754 5757 5761 5764 5766 5770 5771 5773 5775 5778 5781 5785 5789 5793 5796 5799 5802 5805 5807 5809 5810 5811 5811 5812 5814 5815 5816 5816 5817 5817 5815 5814 5812 5808 5807 5805 5800 5797 5793 5789 5784 5778 5772
5738 5744 5748 5752 5756 5760 5763 5765 5767 5770 5771 5774 5776 5779 5781 5785 5789 5791 5794 5797 5799 5801 5802 5804 5803 5804 5805 5807 5809 5809 5811 5810 5808 5806 5803 5802 5800 5797 5794 5790 5786 5781 5776 5771 5765
5732 5737 5742 5746 5751 5755 5757 5760 5763 5765 5767 5769 5770 5773 5775 5777 5779 5782 5785 5788 5790 5793 5794 5794 5796 5797 5798 5799 5797 5800 5801 5801 5799 5797 5798 5796 5792 5789 5787 5783 5779 5774 5769 5763 5757
5724 5730 5736 5740 5745 5748 5752 5755 5757 5760 5761 5763 5766 5767 5768 5770 5772 5774 5775 5778 5781 5783 5785 5785 5788 5789 5789 5789 5789 5789 5791 5791 5790 5791 5788 5789 5786 5781 5779 5776 5771 5767 5761 5755 5749
5717 5723 5728 5734 5738 5742 5746 5749 5751 5753 5756 5758 5761 5761 5763 5763 5764 5766 5767 5768 5770 5773 5774 5776 5777 5778 5780 5780 5780 5780 5781 5780 5781 5781 5781 5779 5777 5774 5771 5767 5764 5759 5754 5748 5743
5709 5715 5721 5726 5731 5735 5739 5743 5745 5747 5750 5752 5754 5756 5756 5757 5757 5757 5757 5759 5759 5763 5766 5769 5769 5771 5772 5772 5772 5773 5777 5774 5773 5773 5772 5771 5769 5767 5763 5760 5755 5751 5745 5741 5734